STARLINK-3564, 52302

Orbit data source: Space-Track

STARLINK-3564, 52302 is a payload satellite owned by SpaceX/Seattle (US) in LEO that was launched on Thu, 21 Apr 2022 UTC via an FALCON 9 launch vehicle from the Air Force Eastern Test Range (AFETR). Payload-class satellites include a variety of spacecraft equipped with specific instruments for various scientific and technological missions. These include communications satellites like Starlink; space stations such as the ISS; scientific satellites like the Hubble; Earth observation satellites from companies like Planet Labs, Umbra, and HawkEye 360; GPS; miniature CubeSats for education and research; and military/defense satellites.

Loading next visibility...
Identifier
52302, 2022-041AT
Orbit
LEO
Country
Flag of USUS
Related business
Manufacturer
SpaceX/Seattle
Mission
Operational Commercial Communications
Bus & Motor
STARLINK, Unknown motor
Mass
297 kg wet, ~275 kg dry
Launch date (UTC)
2022-04-21 (4 years ago)
Launch vehicle
FALCON 9
Launch site
Air Force Eastern Test Range (AFETR)
Object type
Payload
Rocket body
Debris
Shape & HBR
Box + 1 Pan, 10.1 m
Radar Cross Section
11.087 m², Large (>1 m²)

Expand to show TLE details & history
Last TLE update: 13 hours ago

TLE from 13 hours ago
0 STARLINK-3564
1 52302U 22041AT  26130.11832882  .00000684  00000-0  61055-4 0  9995
2 52302  53.2162 173.3567 0001074  84.5138 275.5976 15.08836748223914
Epoch: 2026-05-10T02:50Z
TLE epoch observation values (Epoch: 2026-05-10T02:50:23.610Z)
Latitude
-0.00005°
Longitude
-97.16771°
Altitude
540.578 km
Speed
7.593 km/s
True Right ascension
11h 33m 25s
True Declination
0° 00' 00"
Sunlit
Object was in full shadow at epoch
Visualization orbit readout
Latitude
Unknown
Longitude
Unknown
Altitude
Unknown
Speed
Unknown
Apparent Right ascension
Unknown
Apparent Declination
Unknown
Sunlit
N/A
Visualization observer readout
Local Sidereal Time
23:38:16
Azimuth
Unknown
Elevation
Unknown
Doppler factor
Unknown
Orbital elements
Apogee altitude
540.741 km
Perigee altitude
539.255 km
Semi-major axis
6,918.135 km
Eccentricity
0.00011
Inclination
53.2162°
RAAN
173.3567°
Arg. of periapsis
84.5138°
True anomaly
275.58535°
Mean anomaly
275.5976°
Eccentric anomaly
275.59148°
Mean motion
3.77189 °/min
Orbital period
95.44 mins
BSTAR
0.000061055
Loading maneuver chart data...
Computing Atmospheric mass density...
Loading historical data...
Loading historical data...
Loading historical data...
Loading historical data...
Loading historical data...
Loading historical data...
Loading historical data...

Documentation

Showing up to 5 results
|